TimeAKST,TemperatureF,Dew PointF,Humidity,Sea Level PressureIn,VisibilityMPH,Wind Direction,Wind SpeedMPH,Gust SpeedMPH,PrecipitationIn,Events,Conditions,WindDirDegrees,DateUTC
12:53 AM,-9.0,-13.0,83,30.30,10.0,Calm,Calm,-,N/A,,Scattered Clouds,0,2012-11-09 09:53:00
1:53 AM,-8.0,-11.9,83,30.27,10.0,NNE,3.5,-,N/A,,Scattered Clouds,20,2012-11-09 10:53:00
3:53 AM,-6.0,-11.0,79,30.23,10.0,NE,3.5,-,N/A,,Scattered Clouds,40,2012-11-09 12:53:00
4:53 AM,-6.0,-11.0,79,30.22,10.0,Calm,Calm,-,N/A,,Scattered Clouds,0,2012-11-09 13:53:00
5:53 AM,-8.0,-13.0,79,30.20,10.0,North,3.5,-,N/A,,Scattered Clouds,10,2012-11-09 14:53:00
6:53 AM,-4.0,-8.0,83,30.17,10.0,Calm,Calm,-,N/A,,Scattered Clouds,0,2012-11-09 15:53:00
7:53 AM,-5.1,-9.9,80,30.15,10.0,North,4.6,-,N/A,,Scattered Clouds,360,2012-11-09 16:53:00
8:53 AM,-4.0,-9.0,79,30.14,10.0,NW,3.5,-,N/A,,Scattered Clouds,310,2012-11-09 17:53:00
9:53 AM,-8.0,-11.9,83,30.13,10.0,Calm,Calm,-,N/A,,Partly Cloudy,0,2012-11-09 18:53:00
10:53 AM,-5.1,-9.9,80,30.11,10.0,NW,4.6,-,N/A,,Partly Cloudy,320,2012-11-09 19:53:00
11:53 AM,-2.9,-8.0,79,30.09,10.0,NNW,3.5,-,N/A,,Partly Cloudy,340,2012-11-09 20:53:00
12:53 PM,-0.0,-5.1,79,30.07,10.0,North,3.5,-,N/A,,Scattered Clouds,350,2012-11-09 21:53:00
1:53 PM,-0.0,-5.1,79,30.05,10.0,NNW,3.5,-,N/A,,Scattered Clouds,330,2012-11-09 22:53:00
2:53 PM,-0.0,-5.1,79,30.04,10.0,NNW,3.5,-,N/A,,Scattered Clouds,330,2012-11-09 23:53:00
3:53 PM,-0.9,-6.0,79,30.01,10.0,NNW,4.6,-,N/A,,Scattered Clouds,330,2012-11-10 00:53:00
4:53 PM,-0.0,-6.0,76,29.99,10.0,NNW,6.9,-,N/A,,Scattered Clouds,340,2012-11-10 01:53:00
5:53 PM,-0.9,-6.0,79,29.99,10.0,Calm,Calm,-,N/A,,Mostly Cloudy,0,2012-11-10 02:53:00
6:53 PM,-2.0,-7.1,79,29.97,10.0,North,4.6,-,N/A,,Mostly Cloudy,350,2012-11-10 03:53:00
7:53 PM,-2.9,-8.0,79,29.96,10.0,Calm,Calm,-,N/A,,Mostly Cloudy,0,2012-11-10 04:53:00
8:53 PM,-2.9,-9.0,75,29.95,10.0,Calm,Calm,-,N/A,,Partly Cloudy,0,2012-11-10 05:53:00
9:53 PM,-2.9,-9.0,75,29.95,10.0,NNW,5.8,-,N/A,,Partly Cloudy,330,2012-11-10 06:53:00
10:53 PM,-4.0,-9.0,79,29.93,10.0,North,6.9,-,N/A,,Clear,350,2012-11-10 07:53:00
11:53 PM,-0.9,-8.0,72,29.92,10.0,North,6.9,-,N/A,,Clear,360,2012-11-10 08:53:00